TimeAST,TemperatureF,Dew PointF,Humidity,Sea Level PressureIn,VisibilityMPH,Wind Direction,Wind SpeedMPH,Gust SpeedMPH,PrecipitationIn,Events,Conditions,WindDirDegrees,DateUTC
12:55 AM,64.6,50.4,60,29.98,6.2,North,4.6,-,N/A,,Clear,350,2013-01-08 21:55:00
1:55 AM,64.8,51.6,62,29.97,6.2,North,6.9,-,N/A,,Clear,10,2013-01-08 22:55:00
2:55 AM,63.9,52.5,67,29.97,6.2,North,8.1,-,N/A,,Clear,360,2013-01-08 23:55:00
3:55 AM,63.7,52.7,67,29.96,6.2,North,5.8,-,N/A,,Clear,10,2013-01-09 00:55:00
4:55 AM,63.3,53.1,69,29.97,6.2,North,6.9,-,N/A,,Clear,10,2013-01-09 01:55:00
5:55 AM,63.5,53.4,70,29.98,6.2,NNE,4.6,-,N/A,,Clear,20,2013-01-09 02:55:00
6:55 AM,63.7,54.7,72,30.00,6.2,NE,3.5,-,N/A,,Clear,50,2013-01-09 03:55:00
7:55 AM,66.4,56.5,70,30.02,6.2,ENE,3.5,-,N/A,,Clear,70,2013-01-09 04:55:00
8:55 AM,71.8,57.0,60,30.02,6.2,ENE,10.4,-,N/A,,Partly Cloudy,60,2013-01-09 05:55:00
9:55 AM,75.0,58.5,56,30.02,6.2,East,15.0,-,N/A,,Partly Cloudy,80,2013-01-09 06:55:00
10:55 AM,76.1,60.3,58,29.98,6.2,East,16.1,-,N/A,,Clear,80,2013-01-09 07:55:00
11:55 AM,77.0,61.3,58,29.95,6.2,ESE,13.8,-,N/A,,Clear,110,2013-01-09 08:55:00
12:55 PM,77.0,62.1,60,29.92,6.2,ESE,13.8,-,N/A,,Partly Cloudy,110,2013-01-09 09:55:00
1:55 PM,77.5,62.8,60,29.91,6.2,ESE,11.5,23.0,N/A,,Clear,110,2013-01-09 10:55:00
2:55 PM,76.8,63.9,64,29.89,6.2,East,11.5,-,N/A,,Clear,90,2013-01-09 11:55:00
3:55 PM,75.4,64.8,69,29.88,6.2,East,11.5,-,N/A,,Clear,80,2013-01-09 12:55:00
4:55 PM,73.6,63.7,71,29.88,6.2,East,8.1,-,N/A,,Clear,80,2013-01-09 13:55:00
5:55 PM,71.8,64.4,77,29.89,6.2,ENE,6.9,-,N/A,,Clear,70,2013-01-09 14:55:00
6:55 PM,70.7,64.8,81,29.91,6.2,East,8.1,-,N/A,,Clear,80,2013-01-09 15:55:00
7:55 PM,69.8,65.1,85,29.91,6.2,East,9.2,-,N/A,,Clear,90,2013-01-09 16:55:00
9:55 PM,69.8,65.1,85,29.90,6.2,East,8.1,-,N/A,,Clear,100,2013-01-09 18:55:00
10:55 PM,69.3,65.7,88,29.90,6.2,East,6.9,-,N/A,,Clear,80,2013-01-09 19:55:00
11:55 PM,68.4,65.1,89,29.88,6.2,East,5.8,-,N/A,,Clear,90,2013-01-09 20:55:00